Pagina principale
METAR-TAF:

METAR-TAF

Aeroporti :

Orange Municipal Airport

Orange, Massachusetts, Stati Uniti

latitudine: 42-34-18N, longitudine: 072-16-39W, altezza: 169 m

Osservazione

Il bollettino è stato emesso 8 minuti fa, alle 00:52 UTC
Vento calmo
Temperature 4°C
Umidità 87%
Pressione 1017 hPa
Visibilità: 16.1 km
Cielo sereno

METAR: KORE 170052Z AUTO 00000KT 10SM CLR 04/02 A3002 RMK AO2 SLP169 T00390022

Ora: 21:00 (01:00 UTC)


TAF: mancante

Osservazioni e previsioni meteorologiche di più di 4000 aeroporti (messaggi METAR e TAF).

Le stazioni disponibili sono rappresentate dai dischi gialli e rossi sulla carta.

Puntare il mouse per vedere il nome della stazione.

Clicca sopra per visualizzare le osservazioni e previsioni meteorologiche.

Per cambiare la mappa : fare clic sui pulsanti verdi con una croce nera per ingrandire, il pulsante verde con un trattino per diminuire, o sulla freccia verde per le mappe adiacenti.


METAR-TAF: